CW7529 Weather Reports


Display with metric or nautical units.
time (UTC)temp
F
wind
direction
speed
MPH
gust
MPH
rain 1hr
in
rain 24hr
in
rain mn
in
humidity
%
barometer
mb
20180123214054 26 315 7.0 11.0 0.00 0.04 0.00 85 1024.1
20180123213547 26 293 8.0 15.0 0.00 0.04 0.00 85 1024.1
20180123213042 26 270 9.0 15.0 0.00 0.04 0.00 85 1024.4
20180123212535 26 315 9.0 13.0 0.00 0.04 0.00 85 1024.1
20180123212030 26 315 8.0 13.0 0.00 0.04 0.00 85 1024.1
20180123211525 26 293 9.0 13.0 0.00 0.05 0.00 85 1024.1
20180123211019 26 270 8.0 12.0 0.00 0.05 0.00 85 1024.1
20180123210510 26 315 8.0 12.0 0.00 0.05 0.00 85 1023.7
20180123210005 27 293 8.0 12.0 0.00 0.05 0.00 85 1023.7
20180123205459 27 293 9.0 12.0 0.00 0.05 0.00 83 1024.1
20180123204953 27 270 5.0 12.0 0.00 0.05 0.00 83 1023.7
20180123204448 27 315 9.0 13.0 0.00 0.05 0.00 83 1024.1
20180123203942 27 293 10.0 14.0 0.00 0.05 0.00 83 1023.7
20180123203434 26 338 11.0 15.0 0.00 0.06 0.00 83 1023.7
20180123202928 27 338 10.0 15.0 0.00 0.07 0.00 83 1023.7
20180123202424 27 315 8.0 15.0 0.00 0.07 0.00 85 1023.4
20180123201915 27 338 10.0 15.0 0.00 0.07 0.00 85 1023.4
20180123201412 27 293 9.0 15.0 0.00 0.08 0.00 85 1023.4
20180123200903 27 293 10.0 15.0 0.00 0.08 0.00 85 1023.4
20180123200400 27 315 8.0 12.0 0.00 0.08 0.00 83 1023.0
20180123195852 27 338 9.0 15.0 0.00 0.08 0.00 83 1023.4
20180123195346 27 293 10.0 15.0 0.00 0.08 0.00 83 1023.0
20180123194842 27 315 7.0 12.0 0.00 0.08 0.00 83 1022.7
20180123194333 27 338 8.0 13.0 0.00 0.08 0.00 83 1023.4
20180123193828 27 338 10.0 13.0 0.00 0.08 0.00 83 1023.0
20180123193322 27 338 10.0 14.0 0.00 0.08 0.00 83 1023.4
20180123192815 27 270 9.0 14.0 0.00 0.08 0.00 83 1023.0
20180123192308 27 293 9.0 14.0 0.00 0.08 0.00 85 1023.0
20180123191803 27 315 11.0 14.0 0.00 0.08 0.00 83 1022.7
20180123191256 27 315 8.0 13.0 0.00 0.08 0.00 83 1023.0
20180123190752 27 315 9.0 15.0 0.00 0.08 0.00 83 1022.7
20180123190244 27 315 9.0 15.0 0.00 0.08 0.00 85 1022.7
20180123185740 27 293 10.0 13.0 0.00 0.08 0.00 85 1022.7
20180123185234 27 315 9.0 14.0 0.00 0.08 0.00 85 1022.7
20180123184727 27 293 7.0 14.0 0.00 0.08 0.00 85 1023.0
20180123184221 27 293 7.0 10.0 0.00 0.08 0.00 83 1022.7
20180123183715 27 293 8.0 12.0 0.00 0.08 0.00 83 1022.7
20180123183207 27 338 9.0 13.0 0.00 0.08 0.00 83 1022.7
20180123182702 27 293 10.0 13.0 0.00 0.08 0.00 83 1022.7
20180123182157 27 0 9.0 13.0 0.00 0.08 0.00 83 1022.3
20180123181650 27 293 9.0 13.0 0.00 0.08 0.00 83 1022.3
20180123181126 27 293 9.0 13.0 0.00 0.08 0.00 83 1022.3
20180123180619 27 338 9.0 12.0 0.00 0.08 0.00 83 1022.3
20180123180114 28 0 7.0 14.0 0.00 0.08 0.00 83 1022.3
20180123175608 27 293 9.0 14.0 0.00 0.08 0.00 83 1022.3
20180123175103 28 293 9.0 12.0 0.00 0.08 0.00 81 1022.3
20180123174555 27 315 8.0 12.0 0.00 0.08 0.00 81 1022.3
20180123174050 27 338 9.0 12.0 0.00 0.08 0.00 81 1021.9
20180123173526 28 338 8.0 10.0 0.00 0.08 0.00 83 1022.3
20180123173020 28 0 8.0 13.0 0.00 0.08 0.00 83 1022.7
20180123172455 27 45 9.0 13.0 0.00 0.08 0.00 83 1022.7
20180123171950 27 315 9.0 12.0 0.00 0.08 0.00 83 1022.3
20180123171442 27 338 9.0 15.0 0.00 0.08 0.00 83 1022.3
20180123170938 27 338 9.0 18.0 0.00 0.08 0.00 83 1022.3
20180123170430 27 23 12.0 18.0 0.00 0.08 0.00 83 1022.3
20180123165925 27 315 9.0 15.0 0.00 0.08 0.00 85 1022.3
20180123165417 27 0 11.0 17.0 0.00 0.08 0.00 85 1022.7
20180123164911 27 338 11.0 18.0 0.00 0.08 0.00 85 1022.3
20180123164407 27 315 12.0 18.0 0.00 0.08 0.00 85 1022.3
20180123163842 27 0 12.0 17.0 0.00 0.08 0.00 86 1022.3
20180123163336 27 293 9.0 13.0 0.00 0.08 0.00 86 1021.9
20180123162829 27 23 8.0 12.0 0.00 0.08 0.00 86 1021.9
20180123162324 27 315 8.0 15.0 0.00 0.08 0.00 85 1021.9
20180123161816 27 293 10.0 15.0 0.00 0.08 0.00 85 1021.9
20180123161312 27 0 9.0 15.0 0.00 0.08 0.00 85 1021.9
20180123160804 26 0 11.0 15.0 0.00 0.08 0.00 85 1021.6
20180123160258 26 23 12.0 16.0 0.00 0.08 0.00 85 1021.9
20180123155753 26 338 13.0 16.0 0.00 0.08 0.00 85 1021.6
20180123155247 26 0 11.0 18.0 0.00 0.08 0.00 85 1021.6
20180123154741 26 338 11.0 18.0 0.00 0.08 0.00 86 1021.6
20180123154235 26 338 9.0 17.0 0.00 0.08 0.00 86 1021.2
20180123153729 26 315 12.0 17.0 0.00 0.08 0.00 86 1021.2
20180123153221 26 270 13.0 16.0 0.00 0.08 0.00 86 1021.2
20180123152715 26 338 12.0 15.0 0.00 0.08 0.00 86 1020.9
20180123152208 26 293 10.0 19.0 0.00 0.08 0.00 86 1020.9
20180123151705 26 338 11.0 19.0 0.00 0.08 0.00 86 1020.9
20180123151156 26 293 11.0 17.0 0.00 0.08 0.00 86 1020.6
20180123150649 26 293 11.0 16.0 0.00 0.08 0.00 86 1020.6
20180123150145 26 23 9.0 21.0 0.00 0.08 0.00 86 1020.6
20180123145638 25 338 12.0 21.0 0.00 0.08 0.00 86 1020.6
20180123145133 25 338 11.0 18.0 0.00 0.08 0.00 86 1020.6
20180123144627 25 315 12.0 17.0 0.00 0.08 0.00 86 1020.6
20180123144119 26 338 10.0 15.0 0.00 0.08 0.00 86 1020.2
20180123143615 26 0 10.0 19.0 0.00 0.08 0.00 86 1019.9
20180123143106 26 338 12.0 19.0 0.00 0.08 0.00 86 1019.9
20180123142602 26 338 11.0 17.0 0.00 0.08 0.00 86 1019.6
20180123142054 26 338 10.0 15.0 0.00 0.08 0.00 86 1019.6
20180123141549 26 23 10.0 13.0 0.00 0.08 0.00 86 1019.9
20180123141042 27 338 9.0 17.0 0.00 0.08 0.00 86 1019.6
20180123140537 27 0 9.0 19.0 0.00 0.08 0.00 86 1019.6
20180123140032 27 338 11.0 19.0 0.00 0.08 0.00 85 1019.6
20180123135524 27 0 13.0 20.0 0.00 0.08 0.00 85 1019.2
20180123135020 27 338 13.0 20.0 0.00 0.08 0.00 85 1019.2
20180123134455 27 338 12.0 17.0 0.00 0.08 0.00 85 1019.2
20180123133950 27 338 12.0 19.0 0.00 0.08 0.00 85 1018.9
20180123133444 27 0 13.0 20.0 0.00 0.08 0.00 85 1018.9
20180123132935 27 0 13.0 20.0 0.00 0.08 0.00 85 1018.9
20180123132430 27 0 13.0 19.0 0.00 0.09 0.00 86 1018.9
20180123131922 28 338 11.0 18.0 0.00 0.09 0.00 86 1018.4
20180123131418 28 338 10.0 15.0 0.00 0.10 0.00 86 1018.9
20180123130911 28 293 11.0 15.0 0.00 0.12 0.00 86 1018.4
20180123130406 28 315 9.0 16.0 0.00 0.12 0.00 86 1018.4
20180123125858 28 315 10.0 16.0 0.00 0.12 0.00 86 1018.1
20180123125352 28 293 12.0 16.0 0.00 0.13 0.00 86 1018.4
20180123124847 28 0 10.0 16.0 0.00 0.13 0.00 86 1018.4
20180123124341 28 315 10.0 16.0 0.00 0.13 0.00 86 1018.1
20180123123833 28 315 11.0 16.0 0.00 0.13 0.00 86 1018.1
20180123123327 28 0 9.0 17.0 0.00 0.13 0.00 86 1017.8
20180123122823 28 315 9.0 18.0 0.00 0.13 0.00 86 1017.8
20180123122316 28 338 12.0 18.0 0.00 0.13 0.00 86 1017.8
20180123121812 28 23 9.0 16.0 0.00 0.13 0.00 86 1017.8
20180123121303 28 293 12.0 19.0 0.00 0.13 0.00 86 1017.4
20180123120759 28 23 12.0 19.0 0.00 0.13 0.00 86 1017.8
20180123120233 28 293 11.0 17.0 0.00 0.13 0.00 86 1017.4
20180123115727 28 0 9.0 14.0 0.00 0.13 0.00 86 1017.8
20180123115221 28 315 10.0 15.0 0.00 0.13 0.00 86 1017.4
20180123114716 28 338 11.0 16.0 0.00 0.13 0.00 86 1017.4
20180123114209 29 248 10.0 19.0 0.00 0.13 0.00 86 1017.4
20180123113704 29 315 12.0 19.0 0.00 0.13 0.00 86 1017.1
20180123113157 29 293 10.0 15.0 0.00 0.13 0.00 86 1016.7
20180123112650 29 315 7.0 15.0 0.00 0.13 0.00 86 1016.7
20180123112145 29 293 9.0 15.0 0.00 0.13 0.00 86 1016.7
20180123111639 29 315 8.0 14.0 0.00 0.13 0.00 86 1016.4
20180123111132 29 23 10.0 15.0 0.00 0.13 0.00 86 1016.1
20180123110626 29 0 10.0 15.0 0.00 0.13 0.00 86 1016.1
20180123110121 29 23 11.0 15.0 0.00 0.13 0.00 86 1015.7
20180123105614 29 338 9.0 15.0 0.00 0.13 0.00 86 1015.7
20180123105107 29 338 8.0 11.0 0.00 0.13 0.00 86 1015.4
20180123104602 29 23 9.0 16.0 0.00 0.13 0.00 86 1015.7
20180123104057 29 0 11.0 16.0 0.00 0.13 0.00 86 1015.4
20180123103549 29 0 11.0 18.0 0.00 0.13 0.00 86 1015.4
20180123103045 29 45 13.0 18.0 0.00 0.13 0.00 86 1015.4
20180123102538 29 0 10.0 17.0 0.00 0.13 0.00 86 1015.0
20180123102032 29 0 13.0 17.0 0.00 0.13 0.00 86 1015.0
20180123101525 29 315 11.0 16.0 0.00 0.13 0.00 86 1014.6
20180123101018 29 23 11.0 16.0 0.00 0.13 0.00 86 1014.3
20180123100513 29 338 9.0 14.0 0.00 0.13 0.00 86 1014.6
20180123100008 29 338 9.0 15.0 0.00 0.13 0.00 86 1014.6
20180123095500 29 338 9.0 18.0 0.00 0.13 0.00 86 1014.6
20180123094957 29 0 14.0 18.0 0.00 0.13 0.00 86 1014.3
20180123094449 29 315 12.0 20.0 0.00 0.13 0.00 86 1014.3
20180123093924 29 0 13.0 20.0 0.00 0.14 0.00 86 1013.9
20180123093419 29 23 11.0 16.0 0.00 0.15 0.00 86 1013.9
20180123092911 29 23 11.0 16.0 0.00 0.16 0.00 88 1013.9
20180123092405 29 293 10.0 21.0 0.00 0.17 0.00 88 1013.9
20180123091859 29 338 15.0 21.0 0.00 0.17 0.00 88 1013.9
20180123091353 29 23 12.0 18.0 0.00 0.17 0.00 86 1013.9
20180123090849 29 23 13.0 18.0 0.00 0.17 0.00 86 1013.9
20180123090342 29 338 12.0 17.0 0.00 0.17 0.00 86 1013.9
20180123085834 29 23 11.0 16.0 0.00 0.17 0.00 86 1013.6
20180123085329 29 338 12.0 16.0 0.00 0.17 0.00 86 1013.6
20180123084821 29 338 9.0 15.0 0.00 0.17 0.00 86 1013.3
20180123084317 29 293 10.0 17.0 0.00 0.17 0.00 86 1013.6
20180123083810 29 23 11.0 17.0 0.00 0.17 0.00 88 1013.6
20180123083304 29 338 14.0 17.0 0.00 0.17 0.00 88 1013.3
20180123082757 29 23 12.0 18.0 0.00 0.17 0.00 88 1012.9
20180123082252 29 45 11.0 18.0 0.00 0.17 0.00 88 1012.9
20180123081746 29 338 9.0 21.0 0.00 0.17 0.00 88 1012.9
20180123081239 29 0 13.0 21.0 0.00 0.17 0.00 88 1012.9
20180123080732 29 23 9.0 16.0 0.00 0.17 0.00 88 1012.6
20180123080227 29 23 11.0 16.0 0.00 0.17 0.00 88 1012.2
20180123075720 28 23 10.0 16.0 0.00 0.17 0.00 90 1012.6
20180123075216 28 23 13.0 19.0 0.00 0.17 0.00 90 1012.2
20180123074708 28 23 11.0 19.0 0.00 0.17 0.00 91 1012.2
20180123074201 28 338 10.0 18.0 0.00 0.17 0.00 91 1011.9
20180123073657 29 270 10.0 17.0 0.00 0.17 0.00 90 1011.9
20180123073151 29 338 11.0 15.0 0.00 0.17 0.00 90 1011.9
20180123072643 29 315 11.0 14.0 0.00 0.17 0.00 90 1011.6
20180123072139 29 293 8.0 15.0 0.00 0.17 0.00 91 1011.6
20180123071631 29 338 10.0 15.0 0.00 0.17 0.00 91 1011.6
20180123071125 29 338 9.0 13.0 0.00 0.17 0.00 91 1011.1
20180123070619 29 293 9.0 20.0 0.00 0.17 0.00 91 1011.1
20180123070114 29 338 11.0 20.0 0.00 0.17 0.00 90 1010.8
20180123065608 29 23 12.0 18.0 0.00 0.17 0.00 90 1010.8
20180123065100 29 338 10.0 20.0 0.00 0.18 0.00 90 1010.5
20180123064554 29 338 12.0 21.0 0.00 0.19 0.00 88 1010.5
20180123064052 29 0 13.0 21.0 0.00 0.19 0.00 88 1010.1
20180123063542 29 0 14.0 20.0 0.00 0.19 0.00 88 1009.8
20180123063038 29 338 13.0 21.0 0.00 0.21 0.00 88 1010.1
20180123062455 29 0 14.0 21.0 0.00 0.24 0.00 88 1009.8
20180123061949 29 23 11.0 17.0 0.00 0.29 0.00 88 1009.8
20180123061441 29 23 11.0 19.0 0.00 0.34 0.00 88 1009.8
20180123060935 29 315 14.0 19.0 0.00 0.37 0.00 90 1009.4
20180123060430 29 0 11.0 20.0 0.00 0.39 0.00 90 1009.4
20180123055922 29 0 15.0 21.0 0.00 0.40 0.41 90 1009.1
20180123055418 29 0 16.0 21.0 0.00 0.43 0.41 90 1009.1
20180123054853 29 0 12.0 20.0 0.00 0.45 0.41 91 1009.1
20180123054347 29 0 14.0 23.0 0.00 0.46 0.41 91 1009.1
20180123053842 29 0 15.0 23.0 0.00 0.50 0.41 91 1008.8
20180123053334 29 315 14.0 21.0 0.00 0.54 0.41 91 1008.8
20180123052829 29 0 14.0 21.0 0.00 0.56 0.41 91 1008.8
20180123052322 29 23 14.0 19.0 0.00 0.59 0.41 93 1008.4
20180123051816 29 338 14.0 19.0 0.01 0.63 0.41 93 1008.4
20180123051311 29 315 13.0 23.0 0.01 0.65 0.41 93 1008.4
20180123050803 29 338 15.0 23.0 0.01 0.67 0.41 93 1008.1
20180123050258 29 0 13.0 22.0 0.01 0.68 0.41 93 1008.1
20180123045751 29 23 15.0 23.0 0.01 0.71 0.41 93 1007.7
20180123045246 30 338 14.0 23.0 0.01 0.73 0.41 93 1007.7
20180123044740 30 0 13.0 18.0 0.01 0.74 0.41 93 1007.7
20180123044234 30 338 13.0 18.0 0.01 0.75 0.41 93 1007.7
20180123043726 30 0 11.0 16.0 0.01 0.77 0.41 95 1007.3
20180123043222 30 338 11.0 17.0 0.01 0.79 0.41 95 1007.0
20180123042715 30 338 11.0 22.0 0.01 0.82 0.41 96 1007.0
20180123042208 30 293 13.0 22.0 0.01 0.83 0.41 96 1006.6
20180123041701 30 338 12.0 20.0 0.00 0.81 0.40 96 1007.0
20180123041157 30 338 11.0 15.0 0.00 0.81 0.40 96 1007.0
20180123040652 30 338 12.0 18.0 0.00 0.81 0.40 96 1006.6
20180123040144 31 338 10.0 18.0 0.00 0.81 0.40 96 1006.3
20180123035636 31 338 12.0 16.0 0.00 0.81 0.40 96 1006.6
20180123035132 31 0 12.0 15.0 0.00 0.81 0.40 96 1005.9
20180123034608 31 270 9.0 15.0 0.00 0.81 0.40 96 1005.9
20180123034102 31 0 11.0 15.0 0.00 0.81 0.40 95 1005.9
20180123033554 31 315 9.0 16.0 0.00 0.81 0.40 95 1005.9
20180123033052 31 0 10.0 16.0 0.00 0.81 0.40 93 1005.6
20180123032543 32 315 11.0 16.0 0.00 0.83 0.40 93 1005.6
20180123032035 32 338 10.0 13.0 0.00 0.83 0.40 93 1005.6
20180123031529 32 293 8.0 17.0 0.00 0.83 0.40 93 1005.3
20180123031023 32 338 9.0 19.0 0.00 0.83 0.40 93 1005.6
20180123030519 32 0 14.0 19.0 0.00 0.83 0.40 93 1004.9
20180123030013 32 0 12.0 18.0 0.00 0.83 0.40 93 1004.9
20180123025505 32 0 12.0 18.0 0.00 0.83 0.40 93 1004.9
20180123024958 32 338 13.0 18.0 0.00 0.83 0.40 93 1004.6
20180123024454 32 338 12.0 19.0 0.00 0.83 0.40 95 1004.9
20180123023946 33 315 13.0 19.0 0.00 0.83 0.40 95 1004.6
20180123023442 33 0 12.0 17.0 0.00 0.83 0.40 95 1004.6
20180123022934 33 23 12.0 17.0 0.00 0.83 0.40 95 1004.3
20180123022429 33 23 12.0 19.0 0.00 0.83 0.40 95 1004.3
20180123021922 33 23 13.0 19.0 0.00 0.83 0.40 95 1003.9
20180123021415 33 338 14.0 17.0 0.00 0.83 0.40 95 1003.9
20180123020910 33 23 13.0 17.0 0.00 0.83 0.40 95 1003.5
20180123020327 33 23 13.0 17.0 0.00 0.83 0.40 95 1003.1
20180123015821 33 23 11.0 19.0 0.00 0.83 0.40 95 1003.1
20180123015316 33 23 13.0 19.0 0.01 0.83 0.40 95 1003.5
20180123014753 33 338 13.0 18.0 0.01 0.83 0.40 96 1003.1
20180123014246 33 23 12.0 18.0 0.01 0.83 0.40 96 1003.1
20180123013738 34 23 12.0 16.0 0.01 0.83 0.40 96 1003.1
20180123013233 34 23 11.0 17.0 0.01 0.83 0.40 96 1003.1
20180123012727 34 23 12.0 19.0 0.01 0.83 0.40 96 1002.8
20180123012220 34 23 12.0 19.0 0.01 0.83 0.40 96 1002.8
20180123011714 35 0 11.0 15.0 0.01 0.83 0.40 98 1002.5
20180123011209 35 315 9.0 15.0 0.01 0.83 0.40 98 1002.5
20180123010703 35 23 6.0 15.0 0.01 0.83 0.40 98 1002.1
20180123010139 35 338 2.0 3.0 0.01 0.83 0.40 98 1002.1
20180123005632 35 0 0.0 3.0 0.00 0.82 0.39 98 1002.1
20180123005127 35 0 1.0 3.0 0.00 0.82 0.39 98 1002.1
20180123004619 35 315 2.0 3.0 0.00 0.82 0.39 98 1002.1
20180123004115 35 315 2.0 4.0 0.00 0.82 0.39 98 1001.8
20180123003609 35 293 3.0 4.0 0.00 0.82 0.39 98 1002.1
20180123003043 35 315 2.0 3.0 0.01 0.82 0.39 98 1001.8
20180123002537 35 270 2.0 3.0 0.01 0.82 0.39 98 1001.4
20180123002033 35 270 2.0 3.0 0.01 0.82 0.39 98 1001.4
20180123001526 35 315 2.0 3.0 0.01 0.82 0.39 96 1001.4
20180123001022 35 338 2.0 3.0 0.01 0.82 0.39 96 1001.4
20180123000514 35 293 0.0 0.0 0.02 0.82 0.39 96 1001.1
20180123000008 36 293 0.0 0.0 0.02 0.82 0.39 96 1001.1
20180122235504 36 23 0.0 0.0 0.02 0.82 0.39 96 1001.1
20180122234957 36 90 0.0 0.0 0.02 0.82 0.39 96 1001.1
20180122234435 36 338 0.0 0.0 0.02 0.82 0.39 96 1001.1
20180122233926 36 293 0.0 0.0 0.02 0.82 0.39 96 1001.1
20180122233421 36 338 0.0 0.0 0.02 0.82 0.39 96 1001.1
20180122232913 36 293 0.0 0.0 0.01 0.81 0.38 96 1001.1
20180122232410 36 270 0.0 2.0 0.01 0.81 0.38 96 1000.8
20180122231904 36 315 0.0 2.0 0.01 0.81 0.38 96 1000.8
20180122231401 37 338 2.0 2.0 0.01 0.81 0.38 96 1000.8
20180122230850 37 23 0.0 2.0 0.01 0.81 0.38 96 1000.8
20180122230344 37 23 0.0 0.0 0.00 0.80 0.37 96 1000.4
20180122225839 37 45 0.0 2.0 0.00 0.80 0.37 95 1000.4
20180122225332 37 45 0.0 2.0 0.00 0.80 0.37 95 1000.4
20180122224826 37 113 0.0 1.0 0.00 0.80 0.37 95 1000.4
20180122224324 37 270 0.0 1.0 0.00 0.80 0.37 95 1000.0
20180122223813 37 270 0.0 2.0 0.00 0.80 0.37 95 1000.0
20180122223320 37 90 0.0 2.0 0.00 0.80 0.37 95 999.7
20180122222802 37 180 1.0 3.0 0.00 0.80 0.37 95 999.7
20180122222258 37 180 1.0 4.0 0.00 0.80 0.37 95 999.7
20180122221749 37 203 2.0 4.0 0.00 0.80 0.37 95 999.7
20180122221246 37 180 1.0 3.0 0.01 0.80 0.37 95 999.3
20180122220738 37 203 1.0 3.0 0.01 0.80 0.37 95 999.3
20180122220231 37 225 1.0 4.0 0.01 0.80 0.37 95 999.3
20180122215725 37 203 1.0 4.0 0.01 0.80 0.37 95 999.3
20180122215220 37 203 2.0 5.0 0.01 0.80 0.37 95 999.3
20180122214714 37 203 3.0 6.0 0.01 0.80 0.37 95 999.0